Regional Weather Roundup
Issued by NWS

Home | Current Version | Previous Version | Graphics & Text | Print | Product List | Glossary Off
Versions: 1 2 3 4 5 6 7 8 9 10 11 12 13 14 15 16 17 18 19 20 21 22 23 24 25 26 27 28 29 30 31 32 33 34 35 36 37 38 39 40 41 42 43 44 45 46 47 48 49 50

000
ASUS43 KMPX 071801
RWRMN
WEATHER ROUNDUP FOR MINNESOTA
NATIONAL WEATHER SERVICE TWIN CITIES/CHANHASSEN MN
1200 PM CST SUN FEB 07 2016


NOTE: "FAIR" INDICATES FEW OR NO CLOUDS BELOW 12,000 FEET WITH NO
SIGNIFICANT WEATHER AND/OR OBSTRUCTIONS TO VISIBILITY. N/A MEANS
CURRENT SKY AND/OR WEATHER CONDITIONS ARE NOT AVAILABLE.

MNZ060>063-068>070-071900-
   Twin Cities Metro

CITY           SKY/WX    TMP DP  RH WIND       PRES   REMARKS
TWIN CITIES    PTSUNNY   40  25  55 W16G31    29.63F
6HR MIN TEMP:  34; 6HR MAX TEMP:  40;

ST PAUL        PTSUNNY   39  26  59 NW24G32   29.63F
CRYSTAL        CLOUDY    40  25  55 W21G32    29.62R
BLAINE         PTSUNNY   41  28  60 W23G29    29.61S
LAKEVILLE      MOSUNNY   37  27  65 W24G33    29.64F
EDEN PRAIRIE   CLOUDY    40  26  57 W20G26    29.64S
6HR MIN TEMP:  36; 6HR MAX TEMP:  40;

SOUTH ST PAUL  MOSUNNY   41  26  54 W12G25    29.63F
LAKE ELMO      FAIR      39  28  65 W22G30    29.63S
$$
MNZ001>005-007-008-013>017-022>024-027-028-071900-
   Northwest Minnesota

CITY           SKY/WX    TMP DP  RH WIND       PRES   REMARKS
BEMIDJI        LGT SNOW  28  25  91 W21       29.52R VSB 1   WCI  14
HALLOCK        SNOW      18  16  93 NW35G44   29.70R VSB 1/4 WCI  -3
ROSEAU         LGT SNOW  25  19  80 NW18      29.56R VSB 1   WCI  11
WARROAD        LGT SNOW  25  19  80 NW20G33   29.54R WCI  11
CROOKSTON      LGT SNOW  23  19  86 N35G44    29.69R WCI   4
FOSSTON        LGT SNOW  23  19  86 NW17G32   29.62R WCI   9
DETROIT LAKES  LGT SNOW  34  32  93 NW25      29.61R WCI  21
MOORHEAD       HVY RAIN  34  30  86 N28G37    29.67R WCI  20
PARK RAPIDS    LGT SNOW  34  30  85 NW17      29.53S FOG     WCI  23
MAHNOMEN       LGT SNOW  28  25  87 NW29      29.60R VSB 3/4 WCI  13
$$
MNZ006-009>011-018-025>026-071900-
   North Central Minnesota

CITY           SKY/WX    TMP DP  RH WIND       PRES   REMARKS
BAUDETTE       LGT SNOW  27  22  81 NW18      29.48R VSB 1   WCI  14
FLAG ISLAND    LGT SNOW  27  21  80 NW24      29.50R WCI  12
INTL FALLS     CLOUDY    31  27  85 W14       29.43R WCI  21
6HR MIN TEMP:  31; 6HR MAX TEMP:  34; 6HR PCP:  0.01;

WASKISH        LGT SNOW  28  27  93 W13G21    29.50R VSB 1   WCI  18
LONGVILLE      LGT SNOW  34  32  93 W9        29.49S WCI  26
GRAND RAPIDS   CLOUDY    32  30  93 W10G16    29.45F WCI  24
CRANE LAKE     CLOUDY    34  32  93 CALM      29.43R
ORR            MIX PCPN  32  28  86 W5        29.39S WCI  27
COOK           LGT SNOW  34  30  86 W6        29.42S WCI  29
WALKER         LGT SNOW  32  30  92 W16G28    29.50R WCI  21
$$
MNZ012-019>021-037-071900-
   Northeast Minnesota

CITY           SKY/WX    TMP DP  RH WIND       PRES   REMARKS
DULUTH         FLURRIES  34  31  88 W15       29.45S WCI  24
6HR MIN TEMP:  32; 6HR MAX TEMP:  35; 6HR PCP:  0.04;

ELY            CLOUDY    34  32  93 W7        29.40S FOG     WCI  28
HIBBING        CLOUDY    33  30  88 W10       29.42F WCI  25
EVELETH        LGT RAIN  34  32  93 SW8       29.42F WCI  27
DULUTH HARBOR  DRIZZLE   36  34  93 SW15      29.48S
TWO HARBORS    CLOUDY    37  34  87 W10       29.42S
SILVER BAY     LGT RAIN  36  34  93 CALM      29.41S
GRAND MARAIS     N/A     34  32  92 S8        29.46F WCI  27
G MARAIS ARPRT MIX PCPN  28  27  93 SE5       29.42F VSB 1/2 WCI  23
$$
MNZ029>031-032-039>041-046>048-054>057-064-071900-
   West Central Minnesota

CITY           SKY/WX    TMP DP  RH WIND       PRES   REMARKS
FERGUS FALLS   LGT SNOW  34  30  86 W20G25    29.66S WCI  22
WHEATON        CLOUDY    37  32  81 W26       29.70S
MORRIS         CLOUDY    36  30  80 W22G29    29.66S
ALEXANDRIA     CLOUDY    35  28  75 W20G28    29.62S WCI  24
ELBOW LAKE     CLOUDY    34  31  88 NW21      29.65S FOG     WCI  22
WADENA         LGT RAIN  34  30  86 W14       29.57S WCI  24
GLENWOOD       CLOUDY    36  28  75 W17G29    29.63F
APPLETON       CLOUDY    37  30  75 W18       29.69F
BENSON         CLOUDY    36  28  75 NW16G23   29.67F
ORTONVILLE     CLOUDY    36  28  75 NW20G29   29.70S
MADISON        CLOUDY    37  28  70 W22G31    29.72S
WILLMAR        CLOUDY    37  30  75 W22G28    29.68S
$$
MNZ033>034-036-042>043-049>051-058-059-071900-
   Central Minnesota

CITY           SKY/WX    TMP DP  RH WIND       PRES   REMARKS
ST CLOUD       CLOUDY    38  27  64 W21G29    29.60S
6HR MIN TEMP:  36; 6HR MAX TEMP:  38;

SAUK CENTRE    CLOUDY    35  29  80 W17G24    29.62R WCI  24
PAYNESVILLE    CLOUDY    36  28  72 W22G30    29.64S
AITKIN         MIX PCPN  37  28  70 W8        29.50S
PINE RIVER     FLURRIES  34  28  80 W7G22     29.56F WCI  28
BRAINERD       CLOUDY    34  29  82 W14G22    29.54S WCI  25
STAPLES        CLOUDY    32  30  93 W15       29.56F FOG     WCI  22
LONG PRAIRIE   CLOUDY    34  28  80 W16G24    29.61R WCI  23
LITTLE FALLS   CLOUDY    36  28  75 W14G22    29.59S
LITCHFIELD     CLOUDY    37  28  70 W16G25    29.65S
BUFFALO        CLOUDY    38  26  62 W15G22    29.64S
MAPLE LAKE     CLOUDY    39  29  67 W17G23    29.64S
$$
MNZ037-044-045-052-053-071900-
   East Central Minnesota

CITY           SKY/WX    TMP DP  RH WIND       PRES   REMARKS
PRINCETON      CLOUDY    39  28  65 W12G22    29.59S
MORA           CLOUDY    36  27  69 W14G22    29.57S
CAMBRIDGE      CLOUDY    41  27  56 W16G22    29.56F
RUSH CITY      CLOUDY    38  28  65 W12G22    29.57S
MOOSE LAKE     CLOUDY    36  30  80 W13G21    29.49S
HINCKLEY       LGT SNOW  36  32  87 W12       29.55S
CLOQUET        LGT SNOW  36  32  87 W10       29.46F
MCGREGOR       CLOUDY    34  32  93 W13       29.50S WCI  25
$$
MNZ071>073-080-081-089-090-097-098-071900-
   Southwest Minnesota

CITY           SKY/WX    TMP DP  RH WIND       PRES   REMARKS
MONTEVIDEO     CLOUDY    39  28  65 NW14G20   29.72S
GRANITE FALLS  PTSUNNY   38  31  73 W24G31    29.73S
CANBY          MOSUNNY   39  32  76 NW21G26   29.75S
MARSHALL       CLOUDY    36  28  73 W29G36    29.72F
REDWOOD FALLS  MOSUNNY   40  28  62 W25G35    29.71S
OLIVIA         PTSUNNY   39  30  70 NW23G33   29.68S
PIPESTONE      MOSUNNY   37  23  56 NW25G39   29.78S HAZE
WINDOM         SUNNY     37  28  70 W21       29.75S
WORTHINGTON    MOSUNNY   36  25  64 W25G32    29.79S
JACKSON        SUNNY     37  27  65 W24G32    29.77F
TRACY          CLOUDY    38  28  68 W17G25    29.75S
SLAYTON        CLOUDY    35  29  80 W30G37    29.77S WCI  21
$$
MNZ065>067-074>077-082>085-091>093-071900-
   South Central Minnesota

CITY           SKY/WX    TMP DP  RH WIND       PRES   REMARKS
MANKATO        PTSUNNY   39  25  56 W21G31    29.71F
NEW ULM        MOSUNNY   37  27  65 W22       29.71F
ST JAMES       MOSUNNY   39  28  65 W21       29.75F
FAIRMONT       MOSUNNY   37  25  60 W21G29    29.75F
GLENCOE        MOSUNNY   39  30  70 W18G25    29.66F
FARIBAULT        N/A     39  27  60 W17G30    29.69S
OWATONNA       MOSUNNY   37  25  60 W18       29.70F
WASECA         PTSUNNY   36  28  75 W20G28    29.72F
ALBERT LEA     MOSUNNY   37  27  65 W14G20    29.73S
$$
MNZ078>079-086>088-094>096-071900-
   Southeast Minnesota

CITY           SKY/WX    TMP DP  RH WIND       PRES   REMARKS
ROCHESTER      MOSUNNY   37  26  64 W22G30    29.68F
6HR MIN TEMP:  30; 6HR MAX TEMP:  37;

RED WING       SUNNY     39  25  56 W16G26    29.63F
STANTON        MOSUNNY   39  26  59 W20G30    29.65F
DODGE CENTER   CLOUDY    37  27  65 W20G29    29.68S
WINONA         SUNNY     41  27  56 W10G18    29.67F
AUSTIN         MOSUNNY   37  27  65 W14G24    29.72S
PRESTON        MOSUNNY   35  25  68 W20G25    29.70F WCI  24
$$
ABBREVIATIONS USED IN REMARKS
   TC - TEMPERATURES IN CELSIUS
  WCI - WIND CHILL INDEX
   HX - HEAT INDEX
  VSB - VISIBILITY
$$



USA.gov is the U.S. government's official web portal to all federal, state and local government web resources and services.